Home   Weather   Brampton   Past weeks

Flag for Canada Past Weather in Brampton, Ontario, Canada — Yesterday and Last 2 Weeks

50 °F

Partly sunny.

Feels Like: 48 °F
Forecast: 34 / 49 °F
Wind: 6 mph from Southwest

Location: Toronto Pearson International Airport

Current Time: Oct 28, 2016 at 4:03:22 PM

Latest Report: Oct 28, 2016 at 3:00 PM

Visibility: 15 mi

Pressure: 30.23 "Hg

Humidity: 50%

Dew Point: 32 °F

Location of BramptonLocation

Past Weather in Brampton — Graph


Brampton Temperature Yesterday

Maximum temperature yesterday: 41 °F (at 12:00 AM)
Minimum temperature yesterday: 34 °F (at 5:00 PM)
Average temperature yesterday: 38 °F

High & Low Weather Summary for the Past Weeks

High77 °F (Oct 18, 12:00 PM)100% (Oct 17, 10:00 AM)30.53 "Hg (Oct 17, 10:00 AM)
Low32 °F (Oct 26, 6:00 AM)40% (Oct 19, 3:00 PM)29.55 "Hg (Oct 18, 2:00 PM)
Average51 °F73%30.06 "Hg
* Reported Oct 13 3:00 PM — Oct 28 3:00 PM, Brampton, Weather by CustomWeather, © 2016

Note: Actual official high and low records may vary slightly from our data, if they occured in-between our weather recording intervals... More about our weather records


Brampton Weather History for the Previous 24 Hours

Scroll right to see more
Time TempWeatherWind HumidityBarometerVisibility
3:00 PM
Fri, Oct 28
50 °FPartly sunny.6 mph50%30.23 "Hg15 mi
2:00 PM48 °FPartly sunny.8 mph54%30.25 "Hg15 mi
1:00 PM45 °FPartly sunny.7 mph57%30.27 "Hg15 mi
12:00 PM43 °FPartly sunny.9 mph61%30.29 "Hg15 mi
11:00 AM39 °FPartly sunny.7 mph70%30.31 "Hg15 mi
10:00 AM37 °FPartly sunny.8 mph75%30.30 "Hg15 mi
9:00 AM34 °FScattered clouds.6 mph81%30.30 "Hg15 mi
8:00 AM34 °FBroken clouds.6 mph87%30.27 "Hg15 mi
7:00 AM36 °FPassing clouds.12 mph81%30.26 "Hg15 mi
6:00 AM34 °FPassing clouds.8 mph87%30.24 "Hg15 mi
5:00 AM34 °FPassing clouds.9 mph87%30.22 "Hg15 mi
4:00 AM34 °FPassing clouds.5 mph87%30.20 "Hg15 mi
3:00 AM34 °FOvercast.5 mph87%30.19 "Hg15 mi
2:00 AM36 °FPassing clouds.8 mph87%30.17 "Hg15 mi
1:00 AM36 °FOvercast.8 mph81%30.16 "Hg15 mi
12:00 AM34 °FOvercast.13 mph81%30.16 "Hg15 mi
11:00 PM
Thu, Oct 27
34 °FOvercast.14 mph87%30.16 "Hg15 mi
10:00 PM34 °FOvercast.16 mph87%30.13 "Hg15 mi
9:00 PM34 °FMostly cloudy.17 mph87%30.13 "Hg15 mi
8:00 PM34 °FMostly cloudy.16 mph93%30.10 "Hg15 mi
7:00 PM34 °FLight snow. Low clouds.17 mph87%30.07 "Hg8 mi
6:51 PM34 °FLight snow. Low clouds.18 mph87%30.06 "Hg10 mi
6:00 PM34 °FDrizzle. Fog.16 mph93%30.04 "Hg5 mi
5:00 PM34 °FDrizzle. Fog.14 mph93%30.01 "Hg3 mi
4:00 PM36 °FLight rain. More clouds than sun.17 mph87%29.98 "Hg8 mi
Weather by CustomWeather, © 2016

See weather overviewHow to use our weather pages